Time,TemperatureF,DewpointF,PressureIn,WindDirection,WindDirectionDegrees,WindSpeedMPH,WindSpeedGustMPH,Humidity,HourlyPrecipIn,Conditions,Clouds,dailyrainin,SoftwareType,DateUTC
2013-03-11 00:07:00,48.9,35.2,30.11,SSW,202,3.8,-999.0,59,-99.99,,,0.00,Acu-Link.com,2013-03-11 04:07:00,
2013-03-11 00:22:00,50.0,35.8,30.10,SW,225,2.2,-999.0,58,-99.99,,,0.00,Acu-Link.com,2013-03-11 04:22:00,
2013-03-11 00:37:00,50.0,35.8,30.10,SW,225,2.2,-999.0,58,-99.99,,,0.00,Acu-Link.com,2013-03-11 04:37:00,
2013-03-11 00:52:00,50.7,35.6,30.10,South,180,1.6,-999.0,56,-99.99,,,0.00,Acu-Link.com,2013-03-11 04:52:00,
2013-03-11 01:08:00,50.2,35.1,30.09,WNW,292,3.1,-999.0,56,-99.99,,,0.00,Acu-Link.com,2013-03-11 05:08:00,
2013-03-11 01:23:00,49.6,35.5,30.08,West,270,1.6,-999.0,58,-99.99,,,0.00,Acu-Link.com,2013-03-11 05:23:00,
2013-03-11 01:38:00,49.1,35.4,30.08,NW,315,1.6,-999.0,59,-99.99,,,0.00,Acu-Link.com,2013-03-11 05:38:00,
2013-03-11 01:53:00,49.1,35.4,30.08,NW,315,1.6,-999.0,59,-99.99,,,0.00,Acu-Link.com,2013-03-11 05:53:00,
2013-03-11 02:08:00,49.1,35.4,30.08,NW,315,1.6,-999.0,59,-99.99,,,0.00,Acu-Link.com,2013-03-11 06:08:00,
2013-03-11 02:24:00,49.1,35.4,30.08,NW,315,1.6,-999.0,59,-99.99,,,0.00,Acu-Link.com,2013-03-11 06:24:00,
2013-03-11 02:39:00,48.9,35.2,30.06,SE,135,4.3,-999.0,59,-99.99,,,0.00,Acu-Link.com,2013-03-11 06:39:00,
2013-03-11 02:54:00,48.4,35.1,30.07,South,180,3.1,-999.0,60,-99.99,,,0.00,Acu-Link.com,2013-03-11 06:54:00,
2013-03-11 03:09:00,48.4,35.1,30.07,South,180,3.1,-999.0,60,-99.99,,,0.00,Acu-Link.com,2013-03-11 07:09:00,
2013-03-11 03:24:00,48.9,36.1,30.05,NW,315,3.8,-999.0,61,-99.99,,,0.00,Acu-Link.com,2013-03-11 07:24:00,
2013-03-11 03:40:00,48.0,35.6,30.04,WNW,292,2.2,-999.0,62,-99.99,,,0.00,Acu-Link.com,2013-03-11 07:40:00,
2013-03-11 03:55:00,49.1,35.8,30.04,West,270,4.7,-999.0,60,-99.99,,,0.00,Acu-Link.com,2013-03-11 07:55:00,
2013-03-11 04:10:00,49.1,35.8,30.04,West,270,1.6,-999.0,60,-99.99,,,0.00,Acu-Link.com,2013-03-11 08:10:00,
2013-03-11 04:25:00,48.7,35.9,30.04,SSE,157,7.8,-999.0,61,-99.99,,,0.00,Acu-Link.com,2013-03-11 08:25:00,
2013-03-11 04:40:00,48.6,35.7,30.02,West,270,1.6,-999.0,61,-99.99,,,0.00,Acu-Link.com,2013-03-11 08:40:00,
2013-03-11 04:55:00,48.9,36.1,30.01,West,270,2.7,-999.0,61,-99.99,,,0.00,Acu-Link.com,2013-03-11 08:55:00,
2013-03-11 05:11:00,48.4,35.6,30.01,SW,225,4.3,-999.0,61,-99.99,,,0.00,Acu-Link.com,2013-03-11 09:11:00,
2013-03-11 05:26:00,48.7,35.5,30.01,West,270,2.7,-999.0,60,-99.99,,,0.00,Acu-Link.com,2013-03-11 09:26:00,
2013-03-11 05:41:00,48.6,35.3,30.01,South,180,2.7,-999.0,60,-99.99,,,0.00,Acu-Link.com,2013-03-11 09:41:00,
2013-03-11 05:56:00,48.2,34.6,30.01,SE,135,4.7,-999.0,59,-99.99,,,0.00,Acu-Link.com,2013-03-11 09:56:00,
2013-03-11 06:11:00,48.0,34.4,30.01,South,180,4.7,-999.0,59,-99.99,,,0.00,Acu-Link.com,2013-03-11 10:11:00,
2013-03-11 06:27:00,47.8,34.6,30.02,South,180,2.2,-999.0,60,-99.99,,,0.00,Acu-Link.com,2013-03-11 10:27:00,
2013-03-11 06:42:00,47.3,34.9,30.02,SW,225,2.7,-999.0,62,-99.99,,,0.00,Acu-Link.com,2013-03-11 10:42:00,
2013-03-11 06:57:00,46.8,36.0,30.01,ESE,112,4.7,-999.0,66,-99.99,,,0.00,Acu-Link.com,2013-03-11 10:57:00,
2013-03-11 07:12:00,47.3,36.9,30.00,South,180,5.8,-999.0,67,-99.99,,,0.00,Acu-Link.com,2013-03-11 11:12:00,
2013-03-11 07:28:00,46.8,37.5,30.01,West,270,3.1,-999.0,70,-99.99,,,0.00,Acu-Link.com,2013-03-11 11:28:00,
2013-03-11 07:43:00,46.9,39.1,30.01,South,180,2.2,-999.0,74,-99.99,,,0.00,Acu-Link.com,2013-03-11 11:43:00,
2013-03-11 07:58:00,47.1,40.0,30.01,West,270,4.7,-999.0,76,-99.99,,,0.00,Acu-Link.com,2013-03-11 11:58:00,
2013-03-11 08:13:00,47.8,41.3,30.01,ENE,67,2.7,-999.0,78,-99.99,,,0.00,Acu-Link.com,2013-03-11 12:13:00,
2013-03-11 08:28:00,48.0,41.8,30.02,SW,225,7.4,-999.0,79,-99.99,,,0.00,Acu-Link.com,2013-03-11 12:28:00,
2013-03-11 08:43:00,48.2,42.0,30.02,SE,135,4.3,-999.0,79,-99.99,,,0.00,Acu-Link.com,2013-03-11 12:43:00,
2013-03-11 08:59:00,48.7,42.2,30.02,SSE,157,3.1,-999.0,78,-99.99,,,0.00,Acu-Link.com,2013-03-11 12:59:00,
2013-03-11 09:14:00,49.1,42.5,30.03,SSE,157,4.3,-999.0,78,-99.99,,,0.00,Acu-Link.com,2013-03-11 13:14:00,
2013-03-11 09:29:00,50.0,43.1,30.03,ESE,112,4.3,-999.0,77,-99.99,,,0.00,Acu-Link.com,2013-03-11 13:29:00,
2013-03-11 09:44:00,50.7,43.4,30.03,NNW,337,2.7,-999.0,76,-99.99,,,0.00,Acu-Link.com,2013-03-11 13:44:00,
2013-03-11 09:59:00,51.1,43.4,30.03,SW,225,5.1,-999.0,75,-99.99,,,0.00,Acu-Link.com,2013-03-11 13:59:00,
2013-03-11 10:14:00,51.6,43.6,30.02,SSE,157,9.8,-999.0,74,-99.99,,,0.00,Acu-Link.com,2013-03-11 14:14:00,
2013-03-11 10:29:00,52.0,43.6,30.01,SE,135,9.4,-999.0,73,-99.99,,,0.00,Acu-Link.com,2013-03-11 14:29:00,
2013-03-11 10:45:00,52.0,44.0,30.00,West,270,3.1,-999.0,74,-99.99,,,0.00,Acu-Link.com,2013-03-11 14:45:00,
2013-03-11 11:00:00,52.3,43.9,30.00,ESE,112,5.8,-999.0,73,-99.99,,,0.00,Acu-Link.com,2013-03-11 15:00:00,
2013-03-11 11:15:00,52.2,43.4,30.00,SSE,157,6.3,-999.0,72,-99.99,,,0.00,Acu-Link.com,2013-03-11 15:15:00,
2013-03-11 11:30:00,52.5,43.4,30.00,West,270,6.3,-999.0,71,-99.99,,,0.00,Acu-Link.com,2013-03-11 15:30:00,
2013-03-11 11:46:00,52.3,43.2,29.98,SSE,157,2.7,-999.0,71,-99.99,,,0.00,Acu-Link.com,2013-03-11 15:46:00,
2013-03-11 12:01:00,51.8,42.7,29.97,South,180,10.3,-999.0,71,-99.99,,,0.00,Acu-Link.com,2013-03-11 16:01:00,
2013-03-11 12:16:00,52.3,43.2,29.97,South,180,6.3,-999.0,71,-99.99,,,0.00,Acu-Link.com,2013-03-11 16:16:00,
2013-03-11 12:31:00,52.9,43.7,29.96,South,180,5.1,-999.0,71,-99.99,,,0.00,Acu-Link.com,2013-03-11 16:31:00,
2013-03-11 12:46:00,52.9,43.7,29.97,SW,225,3.8,-999.0,71,-99.99,,,0.00,Acu-Link.com,2013-03-11 16:46:00,
2013-03-11 13:02:00,52.3,43.6,29.95,SSW,202,3.1,-999.0,72,-99.99,,,0.00,Acu-Link.com,2013-03-11 17:02:00,
2013-03-11 13:17:00,52.7,43.9,29.95,NNW,337,4.7,-999.0,72,-99.99,,,0.00,Acu-Link.com,2013-03-11 17:17:00,
2013-03-11 13:32:00,52.9,44.5,29.94,North,0,0.0,-999.0,73,-99.99,,,0.00,Acu-Link.com,2013-03-11 17:32:00,
2013-03-11 13:47:00,53.1,45.0,29.94,South,180,2.7,-999.0,74,-99.99,,,0.00,Acu-Link.com,2013-03-11 17:47:00,
2013-03-11 14:02:00,53.4,45.3,29.93,SW,225,2.2,-999.0,74,-99.99,,,0.00,Acu-Link.com,2013-03-11 18:02:00,
2013-03-11 14:18:00,54.1,46.0,29.93,ESE,112,2.2,-999.0,74,-99.99,,,0.00,Acu-Link.com,2013-03-11 18:18:00,
2013-03-11 14:33:00,54.7,46.6,29.92,West,270,5.1,-999.0,74,-99.99,,,0.00,Acu-Link.com,2013-03-11 18:33:00,
2013-03-11 14:48:00,55.2,47.1,29.89,ESE,112,2.2,-999.0,74,-99.99,,,0.00,Acu-Link.com,2013-03-11 18:48:00,
2013-03-11 15:03:00,55.2,47.1,29.88,South,180,4.3,-999.0,74,-99.99,,,0.00,Acu-Link.com,2013-03-11 19:03:00,
2013-03-11 15:18:00,55.4,47.3,29.88,NW,315,8.3,-999.0,74,-99.99,,,0.00,Acu-Link.com,2013-03-11 19:18:00,
2013-03-11 15:34:00,55.4,47.3,29.87,SE,135,14.1,-999.0,74,-99.99,,,0.00,Acu-Link.com,2013-03-11 19:34:00,
2013-03-11 15:49:00,55.0,46.9,29.83,ESE,112,3.8,-999.0,74,-99.99,,,0.00,Acu-Link.com,2013-03-11 19:49:00,
2013-03-11 16:04:00,55.0,46.9,29.87,WSW,247,5.1,-999.0,74,-99.99,,,0.00,Acu-Link.com,2013-03-11 20:04:00,
2013-03-11 16:19:00,54.3,46.9,29.88,SSE,157,6.7,-999.0,76,-99.99,,,0.00,Acu-Link.com,2013-03-11 20:19:00,
2013-03-11 16:35:00,54.3,47.3,29.87,SSW,202,3.8,-999.0,77,-99.99,,,0.00,Acu-Link.com,2013-03-11 20:35:00,
2013-03-11 16:50:00,54.7,47.3,29.86,WNW,292,3.1,-999.0,76,-99.99,,,0.00,Acu-Link.com,2013-03-11 20:50:00,
2013-03-11 17:05:00,54.7,47.3,29.87,WSW,247,3.1,-999.0,76,-99.99,,,0.00,Acu-Link.com,2013-03-11 21:05:00,
2013-03-11 17:20:00,54.9,47.4,29.85,West,270,8.9,-999.0,76,-99.99,,,0.00,Acu-Link.com,2013-03-11 21:20:00,
2013-03-11 17:35:00,54.5,47.4,29.86,WSW,247,3.1,-999.0,77,-99.99,,,0.00,Acu-Link.com,2013-03-11 21:35:00,
2013-03-11 17:51:00,54.1,47.8,29.86,West,270,2.7,-999.0,79,-99.99,,,0.00,Acu-Link.com,2013-03-11 21:51:00,
2013-03-11 18:06:00,54.1,48.1,29.87,South,180,3.8,-999.0,80,-99.99,,,0.00,Acu-Link.com,2013-03-11 22:06:00,
2013-03-11 18:21:00,54.0,47.9,29.84,West,270,7.4,-999.0,80,-99.99,,,0.00,Acu-Link.com,2013-03-11 22:21:00,
2013-03-11 18:36:00,54.1,48.1,29.82,SE,135,6.3,-999.0,80,-99.99,,,0.00,Acu-Link.com,2013-03-11 22:36:00,
2013-03-11 18:51:00,54.5,48.5,29.83,South,180,3.1,-999.0,80,-99.99,,,0.00,Acu-Link.com,2013-03-11 22:51:00,
2013-03-11 19:07:00,54.3,48.3,29.83,SW,225,2.2,-999.0,80,-99.99,,,0.00,Acu-Link.com,2013-03-11 23:07:00,
2013-03-11 19:22:00,54.3,48.3,29.83,SW,225,3.8,-999.0,80,-99.99,,,0.00,Acu-Link.com,2013-03-11 23:22:00,
2013-03-11 19:37:00,54.1,48.4,29.82,SE,135,3.8,-999.0,81,-99.99,,,0.00,Acu-Link.com,2013-03-11 23:37:00,
2013-03-11 19:52:00,54.3,48.6,29.82,South,180,8.9,-999.0,81,-99.99,,,0.00,Acu-Link.com,2013-03-11 23:52:00,
2013-03-11 20:07:00,54.7,49.0,29.81,West,270,7.4,-999.0,81,-99.99,,,0.00,Acu-Link.com,2013-03-12 00:07:00,
2013-03-11 20:23:00,54.7,49.0,29.81,SE,135,4.7,-999.0,81,-99.99,,,0.00,Acu-Link.com,2013-03-12 00:23:00,
2013-03-11 20:38:00,54.7,49.0,29.82,SSE,157,6.7,-999.0,81,-99.99,,,0.00,Acu-Link.com,2013-03-12 00:38:00,
2013-03-11 20:53:00,54.7,49.3,29.81,NE,45,3.1,-999.0,82,-99.99,,,0.00,Acu-Link.com,2013-03-12 00:53:00,
2013-03-11 21:08:00,54.5,49.4,29.81,WSW,247,3.8,-999.0,83,-99.99,,,0.00,Acu-Link.com,2013-03-12 01:08:00,
2013-03-11 21:23:00,54.1,50.0,29.81,South,180,3.1,-999.0,86,-99.99,,,0.00,Acu-Link.com,2013-03-12 01:23:00,
2013-03-11 21:39:00,53.4,50.0,29.81,SW,225,1.6,-999.0,88,-99.99,,,0.00,Acu-Link.com,2013-03-12 01:39:00,
2013-03-11 21:54:00,53.1,50.2,29.81,SSW,202,4.7,-999.0,90,-99.99,,,0.00,Acu-Link.com,2013-03-12 01:54:00,
2013-03-11 22:09:00,52.3,50.7,29.81,SSE,157,5.1,-999.0,94,-99.99,,,0.00,Acu-Link.com,2013-03-12 02:09:00,
2013-03-11 22:24:00,52.0,51.2,29.81,South,180,1.1,-999.0,97,-99.99,,,0.00,Acu-Link.com,2013-03-12 02:24:00,
2013-03-11 22:40:00,52.0,51.4,29.81,SW,225,1.1,-999.0,98,-99.99,,,0.00,Acu-Link.com,2013-03-12 02:40:00,
2013-03-11 22:55:00,51.6,51.1,29.80,NW,315,1.6,-999.0,98,-99.99,,,0.00,Acu-Link.com,2013-03-12 02:55:00,
2013-03-11 23:10:00,51.8,51.3,29.80,SE,135,3.1,-999.0,98,-99.99,,,0.00,Acu-Link.com,2013-03-12 03:10:00,
2013-03-11 23:25:00,52.0,51.4,29.79,SW,225,1.6,-999.0,98,-99.99,,,0.00,Acu-Link.com,2013-03-12 03:25:00,
2013-03-11 23:40:00,52.2,51.6,29.78,WSW,247,1.6,-999.0,98,-99.99,,,0.00,Acu-Link.com,2013-03-12 03:40:00,
2013-03-11 23:56:00,52.3,51.8,29.79,South,180,2.7,-999.0,98,-99.99,,,0.00,Acu-Link.com,2013-03-12 03:56:00,